GFSSGP_2pvu_pres_114.txt.gz
Presure
120 117 106 115 118 112 110 110 99 116 124 116 107 102 121 112 117 112 116 118 117 116 117 114 99 116 114 112 117 116 113 113 106 129 119 124 112 122 124 125 122 113 118 107 130 113 126 139 116
126 131 126 120 120 119 119 118 119 124 125 121 119 124 120 119 114 117 119 117 126 129 122 131 124 121 123 129 122 120 128 126 123 114 138 133 141 139 132 106 107 147 143 141 150 138 149 138 144
132 109 131 133 132 130 131 133 131 126 129 132 131 135 136 138 139 137 137 136 133 134 136 143 214 255 148 239 195 225 210 218 209 209 216 196 142 157 107 193 207 197 330 219 279 241 259 248 148
146 138 135 118 136 133 126 130 122 119 133 124 131 134 135 125 132 139 134 133 136 231 251 216 242 249 229 246 249 251 231 247 247 222 178 171 267 161 164 222 212 213 169 324 201 229 263 183 249
145 146 147 140 146 135 132 139 146 142 141 128 139 139 145 212 213 154 167 170 236 240 214 231 241 237 135 237 250 145 175 242 241 206 240 210 211 233 151 220 217 205 215 316 197 165 259 223 218
201 190 179 168 111 161 163 155 153 183 189 214 212 214 209 210 213 209 205 216 238 213 226 224 211 238 149 179 209 194 224 236 229 191 190 212 198 209 231 231 235 222 217 250 203 231 216 252 236
225 202 214 213 213 195 218 219 210 210 204 210 209 208 200 208 196 207 195 219 176 200 213 248 226 211 195 245 245 241 142 229 209 238 210 219 212 251 216 211 224 225 231 132 218 234 228 212 232
209 210 211 207 202 206 209 207 208 211 214 212 210 202 194 197 202 211 199 214 211 227 212 164 221 221 150 133 236 252 210 224 215 213 150 255 233 221 250 223 208 221 219 212 233 211 246 233 227
216 198 210 201 204 208 173 212 209 203 192 202 187 191 205 193 190 181 210 226 217 224 231 193 228 227 176 252 216 253 230 223 209 216 216 244 243 235 226 266 220 214 226 210 214 214 232 214 226
202 203 202 197 202 207 212 164 154 188 198 199 178 199 181 192 183 201 196 206 197 202 218 207 185 211 239 148 177 244 238 220 214 222 138 252 238 241 210 241 216 213 224 207 205 203 204 203 219
207 204 193 195 196 198 203 198 193 143 155 178 176 195 187 157 195 193 191 196 203 221 210 148 206 216 233 232 262 247 226 216 207 224 232 217 234 246 260 207 232 203 218 208 203 214 228 223 194
204 200 148 194 199 203 205 205 205 205 189 192 199 173 150 187 184 199 181 197 214 225 153 208 212 201 225 240 248 235 226 214 212 215 206 232 217 230 239 236 211 225 215 208 199 205 215 184 195
200 196 199 197 198 197 197 187 142 196 195 192 203 164 190 200 193 182 168 201 182 171 209 201 202 192 194 196 167 250 230 212 203 206 212 233 229 235 235 227 215 204 209 214 208 185 203 203 185
206 205 193 195 201 195 191 198 198 178 163 173 191 79 159 195 198 154 189 141 192 200 192 208 207 204 197 222 230 265 225 211 205 211 212 225 225 231 228 235 224 198 189 212 196 207 179 198 174
190 208 200 189 195 200 197 195 202 199 202 204 200 208 213 193 174 176 125 183 183 197 189 203 189 178 180 215 241 246 233 204 205 160 133 224 244 235 232 232 210 200 184 203 194 185 189 174 203
175 206 203 202 207 202 196 197 174 184 205 202 179 206 189 175 176 181 176 178 186 191 207 203 197 193 202 173 240 268 243 216 208 201 205 219 230 212 226 229 215 199 211 191 193 185 189 198 175
191 192 204 196 193 196 191 152 208 208 207 204 195 205 197 195 194 178 178 195 201 201 203 196 198 176 218 218 237 274 239 213 206 191 203 212 231 211 223 218 232 193 193 184 184 201 173 193 198
209 201 182 192 196 203 202 192 189 192 197 205 100 192 199 193 203 192 188 180 196 206 183 175 182 200 184 228 207 242 239 216 205 197 200 215 221 222 218 215 226 206 214 182 186 188 179 178 168
220 216 209 201 200 191 189 200 195 199 194 203 206 206 204 189 200 197 200 202 188 190 187 195 184 161 168 212 244 233 255 221 209 195 197 216 223 224 232 217 238 205 234 179 193 205 181 185 185
224 230 208 227 219 212 200 191 204 196 188 187 193 190 191 197 198 196 200 204 200 195 204 196 191 181 214 223 189 226 257 234 212 193 189 221 217 225 206 216 241 223 230 203 194 179 170 170 169
217 222 215 218 230 213 221 217 212 210 214 212 199 193 180 204 200 192 195 178 199 195 186 186 195 205 218 226 202 228 248 237 223 197 190 203 234 220 205 219 237 218 222 219 201 180 188 179 168
220 224 218 217 212 231 222 215 224 209 207 216 219 217 212 192 211 203 184 204 193 151 194 78 201 211 216 234 201 247 241 222 222 194 206 209 223 219 213 223 214 214 243 225 180 183 176 171 167
220 226 224 224 225 224 226 215 214 200 214 214 224 214 213 219 219 204 210 98 199 200 189 200 201 210 220 142 248 253 234 219 214 202 209 205 226 216 208 214 239 224 206 206 211 190 175 179 178
239 236 236 237 234 233 226 226 227 206 210 211 224 211 204 162 213 195 214 210 205 205 174 206 212 224 238 250 230 250 228 216 213 205 207 203 232 216 217 211 238 212 216 168 194 185 172 171 178
257 248 239 235 248 233 217 227 225 229 223 214 217 210 216 208 204 199 207 218 215 215 217 215 223 231 230 247 223 260 225 216 207 203 209 204 215 218 219 210 219 224 186 190 196 187 183 175 166
271 260 256 251 249 235 238 232 231 214 221 221 210 210 221 220 217 222 220 219 220 216 214 223 231 239 230 239 256 243 224 215 207 205 203 222 220 224 210 204 217 185 200 181 184 179 179 173 175
271 269 175 253 253 254 258 252 242 241 242 232 237 210 224 222 212 210 220 215 214 213 223 226 230 228 237 236 261 234 220 217 210 200 218 217 226 281 208 208 201 201 186 183 173 192 173 184 177
293 274 263 262 260 255 257 247 248 249 252 252 152 243 146 237 74 85 223 222 214 224 222 228 229 252 248 231 258 227 217 211 208 201 202 236 214 304 194 205 199 190 187 179 186 182 173 172 176
297 291 281 269 263 260 257 251 254 259 259 78 129 121 248 238 233 227 223 226 233 220 227 223 243 257 246 254 232 225 213 201 204 193 211 206 250 235 210 203 199 188 182 180 182 180 187 184 180
344 318 292 280 269 262 257 253 256 246 242 248 263 259 252 244 232 230 235 239 222 216 215 228 234 233 244 253 229 212 213 194 205 207 206 215 269 216 202 205 205 190 185 175 178 179 182 186 188

GFSSGP_2pvu_pres_117.txt.gz
Presure
127 125 115 104 108 123 120 120 119 114 108 114 112 111 108 114 117 117 116 113 116 115 118 115 114 112 114 115 115 109 114 117 107 115 116 108 122 130 117 117 115 114 119 117 120 82 122 116 123
129 130 128 131 123 117 121 118 121 116 122 119 109 121 121 120 120 118 110 125 118 123 114 116 122 125 127 114 134 118 94 119 119 119 133 109 120 138 142 140 113 137 137 120 150 155 150 124 144
141 130 125 129 125 129 126 129 133 129 120 119 119 109 115 124 120 126 131 135 137 138 140 143 144 140 140 136 134 186 211 244 180 251 217 251 286 218 170 181 151 156 216 191 164 157 154 164 164
137 139 141 136 138 141 136 132 110 129 132 133 131 131 137 136 132 130 132 128 127 135 131 132 135 137 242 244 187 246 240 140 184 189 251 172 141 213 166 174 222 215 187 165 241 177 147 151 168
158 143 153 151 151 137 138 147 145 142 127 130 132 123 116 122 135 134 137 131 135 134 142 223 239 227 221 233 203 241 239 206 253 159 252 174 84 217 188 190 199 199 164 174 205 212 136 201 239
192 172 156 157 151 161 158 155 152 152 150 148 142 145 143 146 141 143 141 211 214 215 218 216 220 227 209 204 235 223 212 250 250 240 219 243 254 225 152 197 205 162 149 170 203 203 216 127 227
229 208 207 211 213 204 189 194 173 220 208 194 195 218 213 209 222 218 216 207 201 201 202 240 238 170 227 223 156 159 229 213 140 186 243 228 221 205 196 189 176 150 210 208 208 210 215 187 143
214 216 222 179 161 215 216 214 208 199 217 212 210 202 213 211 214 210 203 203 200 193 194 212 208 204 205 214 213 126 226 233 177 181 225 234 222 233 210 207 202 242 222 203 215 206 215 203 236
224 211 194 216 215 213 214 215 172 215 213 204 208 207 215 207 204 215 213 197 185 198 164 162 217 236 150 206 175 200 191 255 228 157 232 230 212 238 250 232 215 225 203 205 213 211 207 209 229
194 114 132 196 142 168 219 221 225 220 182 206 200 198 207 197 183 214 193 183 180 194 213 194 202 243 209 183 219 196 140 247 198 225 180 225 220 180 251 243 234 234 221 231 216 225 205 196 197
132 215 189 196 143 205 182 109 208 205 174 197 195 196 199 196 201 198 206 172 161 166 114 188 209 195 211 216 219 195 233 257 164 231 220 216 219 221 209 226 238 229 208 200 238 208 222 215 196
209 180 182 209 202 145 212 206 213 203 69 194 197 196 204 209 206 150 142 143 184 192 196 176 191 205 190 201 129 223 238 232 272 236 222 215 203 213 208 215 231 245 218 223 216 201 208 184 217
199 187 192 183 181 202 206 203 113 171 208 196 196 194 191 150 206 191 191 179 177 184 218 188 199 164 131 197 206 196 245 219 159 238 219 209 186 215 221 226 235 234 213 208 207 198 202 220 197
221 190 202 191 182 203 196 196 205 181 194 193 192 192 196 143 182 176 176 185 193 160 193 181 139 128 169 190 205 210 147 115 234 238 196 213 205 212 203 218 222 223 220 206 196 200 184 221 214
206 184 215 171 187 169 194 205 188 201 205 193 193 197 195 74 89 175 190 194 180 184 181 178 176 199 192 207 194 198 229 227 235 259 208 211 212 209 221 219 219 221 221 207 187 197 182 213 183
188 193 180 191 208 174 169 180 192 200 200 207 196 196 201 191 194 198 145 179 192 185 200 199 169 193 195 203 201 208 174 212 247 269 225 212 211 208 211 215 223 223 229 211 203 195 183 194 179
239 183 212 188 197 193 206 182 176 194 201 201 204 200 204 197 200 185 198 188 190 192 201 183 190 195 204 203 192 183 175 227 209 259 230 199 211 209 207 218 220 217 227 234 197 184 186 195 185
210 202 193 201 215 202 212 62 205 196 201 200 197 195 188 202 191 187 183 195 187 200 183 194 199 167 177 196 202 166 182 224 225 256 236 207 208 206 216 218 217 219 217 217 208 186 175 186 179
235 222 227 208 211 223 221 209 193 203 190 188 77 204 202 200 184 191 195 191 192 191 194 194 195 167 200 203 210 188 198 172 226 233 235 207 203 209 223 226 241 212 203 230 189 202 176 190 187
280 229 216 222 216 214 219 217 211 204 195 193 189 189 164 180 195 172 193 190 189 189 200 191 195 192 194 183 183 213 176 232 223 235 246 217 204 195 213 216 232 221 208 237 197 195 179 194 178
268 270 221 225 228 224 225 224 207 208 207 193 194 194 191 187 186 155 195 184 193 187 184 196 173 187 180 205 180 179 194 220 249 197 262 210 203 193 198 216 235 207 216 236 208 215 187 189 175
256 260 251 229 240 220 219 226 217 218 209 213 205 210 209 209 207 205 202 196 195 201 193 200 201 178 198 205 198 193 211 221 248 246 244 228 206 203 204 214 235 204 225 217 206 209 189 189 180
264 263 263 242 243 225 231 219 211 218 216 211 221 219 218 223 216 213 222 209 213 205 205 201 203 207 201 207 202 203 213 222 179 249 236 213 204 203 208 214 236 207 220 229 242 231 196 186 183
258 252 263 261 254 245 217 222 213 216 212 210 209 204 210 215 215 213 213 213 203 212 208 213 217 202 212 209 212 212 224 223 252 221 234 212 203 203 207 212 227 212 224 234 220 222 210 194 167
183 268 257 255 265 256 202 233 209 211 217 210 216 210 174 213 207 208 201 210 212 217 214 132 209 203 212 210 208 219 228 235 250 155 235 213 201 204 211 209 229 215 216 209 219 176 204 198 180
324 296 276 263 262 242 254 241 227 215 218 217 212 212 128 216 217 217 212 209 213 219 207 214 205 199 211 216 217 226 222 237 242 250 233 222 208 204 214 207 235 216 208 222 218 224 195 190 181
299 309 303 277 263 252 246 86 245 230 225 220 216 218 222 218 222 217 214 216 220 215 211 223 193 211 214 217 219 217 237 238 232 257 227 218 195 209 229 205 235 216 220 219 209 199 197 167 197
279 317 295 79 271 264 253 240 239 196 249 239 84 213 219 230 213 219 224 212 212 217 219 217 217 219 218 218 215 221 237 236 228 248 227 213 194 210 216 209 230 216 210 224 202 188 172 189 186
442 459 269 176 293 227 266 246 233 230 238 239 239 238 232 229 82 228 222 229 152 225 221 210 218 217 215 215 217 229 231 248 247 242 224 213 195 209 212 203 226 218 205 212 190 197 201 185 180
364 433 397 309 279 297 272 271 251 247 248 242 246 245 240 95 234 232 239 239 102 230 225 226 218 213 218 215 229 235 242 233 246 235 214 205 193 197 234 216 222 216 207 196 193 181 197 177 172

GFSSGP_2pvu_pres_120.txt.gz
Presure
120 125 130 132 121 114 116 117 122 122 118 107 112 114 113 111 115 114 115 116 108 113 115 118 116 116 114 113 105 112 115 117 118 116 115 117 113 124 113 123 122 122 138 127 121 113 126 127 111
125 129 131 130 131 124 119 132 130 114 111 127 120 119 120 92 114 116 121 115 115 123 124 117 114 129 122 123 128 113 104 117 115 121 133 119 111 117 94 133 141 134 155 151 150 151 144 150 115
132 132 128 126 123 122 132 133 131 129 127 127 120 123 120 121 123 124 123 121 107 118 128 126 132 136 142 141 139 145 141 137 140 137 135 203 212 208 222 209 161 203 201 219 223 226 221 214 161
141 142 142 139 137 140 139 141 138 129 130 127 129 131 129 133 134 133 135 133 134 137 139 141 125 136 137 140 139 132 144 167 243 140 250 225 234 218 238 225 218 215 186 147 198 261 244 182 120
161 153 155 152 149 147 149 145 141 134 141 140 143 145 142 133 129 127 126 128 138 125 123 145 144 147 150 161 224 232 236 231 190 128 280 253 247 217 194 178 187 212 187 103 170 157 201 234 181
242 204 207 163 160 160 160 161 152 151 161 156 157 155 139 151 152 151 155 142 147 182 172 181 218 210 203 217 210 216 221 230 199 239 248 170 197 226 206 219 195 173 214 188 191 180 202 201 192
186 242 156 162 242 235 225 227 219 208 163 163 169 164 162 159 147 190 117 192 217 217 223 209 212 213 204 203 204 229 231 221 222 166 243 261 162 215 169 151 184 182 125 187 229 200 190 191 131
127 154 239 240 151 209 224 232 226 139 207 211 213 207 230 222 200 216 215 213 215 215 203 204 195 191 112 193 228 212 161 229 104 241 255 255 247 236 148 222 217 217 203 206 204 194 205 204 205
204 169 185 214 222 210 211 184 161 167 221 220 162 180 218 216 127 212 203 230 219 213 212 204 206 196 193 191 216 126 220 207 233 133 219 274 155 202 154 219 171 164 197 194 213 194 193 172 215
205 179 193 209 148 129 201 193 227 233 202 223 182 165 205 206 218 216 213 205 204 188 207 198 197 191 187 186 201 192 212 158 221 237 249 100 250 225 234 238 227 192 203 190 191 200 204 197 206
213 199 207 208 209 217 199 212 187 207 205 205 126 130 206 213 206 180 187 204 200 199 204 195 202 172 191 181 154 204 190 214 200 236 152 257 239 116 225 116 239 245 207 206 207 200 195 197 205
161 215 211 153 141 197 126 207 214 211 177 209 156 203 201 206 198 198 184 209 202 196 201 193 198 116 157 154 191 191 162 129 188 199 144 248 231 205 120 204 206 217 227 238 238 212 204 230 246
247 242 200 223 185 201 205 188 181 194 187 201 200 198 198 200 195 164 203 206 199 188 189 183 163 196 198 190 176 186 138 171 165 207 241 239 246 222 212 191 207 203 205 229 237 230 216 222 206
179 185 250 211 173 215 197 198 191 195 196 125 67 162 202 179 196 196 199 194 191 198 199 186 195 200 188 181 186 206 196 201 188 210 239 215 261 230 204 207 204 209 230 226 229 218 216 207 207
194 234 175 255 210 202 183 216 216 196 181 190 202 180 194 198 176 182 187 186 190 183 189 195 157 170 187 179 162 173 201 178 148 112 103 226 276 228 218 205 206 209 196 214 219 213 207 201 193
278 284 283 255 249 217 191 217 150 83 193 200 189 210 179 190 195 185 188 188 187 190 193 184 189 185 191 163 203 207 200 191 156 146 193 228 268 232 217 204 194 203 208 223 224 213 208 214 191
334 294 265 257 221 215 216 173 194 209 195 211 211 183 204 194 178 168 85 196 190 184 193 179 200 197 196 193 190 189 203 199 190 182 214 239 243 240 225 204 210 190 205 216 218 221 208 198 185
302 314 321 261 261 251 228 196 195 184 205 210 188 185 189 173 199 186 188 189 185 193 192 183 185 182 197 187 188 199 152 194 163 191 198 231 213 235 220 207 208 199 207 214 218 222 234 197 193
297 282 308 297 314 248 245 238 233 218 217 165 191 206 204 200 201 191 201 197 201 182 184 195 188 185 193 183 180 196 167 193 211 190 176 220 230 259 217 209 210 193 196 223 215 216 224 192 198
302 279 285 289 285 243 239 240 231 223 206 203 199 179 196 206 200 203 195 189 156 197 188 191 192 188 189 183 193 194 181 186 206 159 156 182 226 257 228 207 204 203 215 218 211 214 237 194 191
316 288 279 281 277 273 274 265 236 231 214 198 189 201 195 195 200 130 180 188 196 195 193 186 189 184 192 199 194 201 174 198 172 203 191 211 223 191 239 207 204 195 201 230 210 214 228 194 182
342 299 278 280 229 267 264 243 235 218 221 208 200 202 209 199 197 198 198 192 192 185 184 180 189 188 189 198 180 193 175 203 203 216 123 206 220 249 265 221 203 199 194 225 218 215 214 225 212
319 362 294 275 279 265 280 76 221 215 217 211 205 199 200 214 207 201 203 194 198 192 186 198 184 172 179 185 203 201 201 202 206 217 227 226 223 255 263 220 205 203 197 230 211 202 203 247 219
334 310 364 286 268 279 267 265 255 259 224 227 212 208 206 208 212 212 199 203 210 209 211 204 208 204 194 209 203 201 198 89 210 190 223 202 228 249 250 231 209 201 202 218 203 202 216 245 218
491 241 307 349 281 279 71 176 252 245 235 228 231 221 217 209 209 210 214 209 205 211 204 215 213 210 206 213 204 214 206 212 201 220 224 224 233 245 247 221 210 200 205 210 214 202 211 238 206
427 477 418 297 343 282 265 263 122 124 238 233 230 234 231 209 208 209 211 208 209 216 202 204 211 213 118 84 203 208 221 209 214 221 215 226 240 234 239 212 211 201 202 206 220 200 225 236 236
409 442 467 345 287 336 261 269 96 151 231 232 236 237 225 220 214 210 210 210 198 208 197 205 218 218 217 213 202 222 208 221 197 206 220 224 241 226 247 213 209 199 205 191 217 204 212 231 209
366 399 418 435 328 311 80 261 253 250 238 235 244 237 237 220 206 203 207 209 211 212 213 212 222 215 215 216 209 194 222 201 207 209 227 235 232 234 239 219 203 201 202 205 218 207 226 224 214
345 253 370 398 438 279 235 261 243 246 240 240 236 236 220 228 230 226 215 205 207 210 212 216 220 217 215 214 223 201 211 214 221 212 220 232 233 216 238 222 195 202 203 207 223 199 211 220 215
320 337 353 399 417 284 197 84 245 246 249 256 259 243 232 240 231 231 216 91 219 223 184 88 231 215 225 206 212 223 199 215 228 223 228 232 250 246 235 217 197 204 202 207 220 203 201 208 197

GFSSGP_2pvu_pres_123.txt.gz
Presure
127 128 126 121 123 118 123 131 134 110 109 122 123 125 112 115 113 112 100 115 115 112 106 103 115 100 115 99 117 102 115 113 104 101 114 117 116 112 127 126 124 123 131 118 98 86 116 119 141
134 138 138 125 116 117 124 134 132 130 122 119 125 109 119 102 113 121 113 106 111 112 117 118 117 102 110 122 123 113 111 124 119 116 112 100 111 119 112 134 126 119 116 110 131 139 146 148 148
151 144 142 143 129 129 131 141 127 129 129 133 127 126 134 118 110 122 125 116 106 108 119 122 121 127 120 118 123 136 139 147 144 138 145 138 134 130 215 195 196 124 220 148 201 123 185 216 229
136 170 157 149 140 135 139 146 146 135 136 134 131 131 133 135 127 131 131 123 124 126 129 132 128 137 139 137 140 146 130 148 153 154 248 236 247 155 242 217 157 77 79 212 137 200 204 202 201
237 198 191 163 161 149 152 154 159 146 148 143 145 143 141 145 142 127 128 126 132 135 133 131 134 133 136 139 125 138 219 168 247 234 232 243 246 242 236 223 165 75 186 148 232 213 89 209 211
251 254 198 135 139 183 169 157 157 166 162 154 156 161 158 156 149 149 149 148 153 156 146 146 162 187 216 218 208 210 201 228 238 236 249 238 231 248 194 214 186 211 215 202 230 153 211 199 167
212 135 170 232 227 235 231 235 229 187 157 171 173 173 169 171 166 164 165 156 154 162 203 217 211 134 127 204 206 197 192 197 173 197 229 112 171 159 237 217 219 218 196 211 152 198 209 199 204
193 223 193 238 234 230 224 228 241 245 226 247 206 224 181 232 232 213 223 202 220 210 198 209 208 215 217 214 135 206 204 180 204 232 215 239 162 101 255 267 225 215 136 209 203 219 202 210 209
243 214 225 214 222 207 226 221 163 143 173 154 209 159 186 227 165 111 219 228 215 213 162 206 214 216 175 198 178 195 197 203 198 216 156 158 233 211 236 239 223 219 209 129 158 127 203 206 174
200 228 221 216 199 216 194 208 215 210 188 158 167 171 159 137 189 122 102 97 211 205 209 205 201 198 198 203 212 202 194 195 173 154 171 151 173 240 269 256 133 190 216 194 195 203 196 202 195
218 220 183 215 164 256 216 230 217 223 203 205 212 213 223 220 214 220 211 200 204 216 206 197 191 202 195 207 202 209 223 198 196 178 213 206 230 127 274 265 243 242 225 109 193 192 224 195 201
173 227 178 225 253 240 257 162 138 200 203 225 200 210 210 206 200 200 197 134 150 204 193 192 196 194 203 201 195 200 213 195 175 171 146 196 138 250 249 255 236 228 214 151 119 193 202 201 203
186 212 243 196 199 185 225 224 215 214 215 189 136 196 200 87 74 214 199 208 211 178 196 192 188 195 197 200 197 182 187 193 184 201 180 183 139 214 229 158 230 218 103 214 216 203 204 208 198
219 238 251 230 242 186 194 232 173 217 204 214 200 219 130 136 194 198 192 193 204 211 200 201 191 189 194 198 192 190 193 188 141 170 203 216 173 181 167 271 241 213 205 209 203 204 213 222 238
227 235 245 180 282 253 254 202 257 191 221 228 217 201 152 200 188 87 192 203 191 191 118 180 188 192 182 190 198 189 181 167 191 187 161 122 225 179 121 231 246 218 112 204 207 205 235 247 236
234 246 253 282 278 290 268 279 162 281 216 191 188 222 202 174 193 172 192 185 189 189 193 183 180 88 191 189 198 190 195 181 199 186 193 204 181 99 182 226 259 225 203 204 205 205 218 228 224
243 281 282 282 278 277 328 327 302 276 247 233 218 216 223 213 207 206 188 188 193 183 189 189 181 171 182 196 188 186 185 193 192 185 202 184 201 148 199 232 261 231 213 195 201 191 208 223 223
277 277 285 287 325 323 324 341 361 284 254 250 228 217 216 229 214 210 196 170 182 153 153 164 195 190 191 190 190 205 186 176 182 190 142 183 192 203 182 223 201 229 222 195 204 194 200 216 221
264 291 273 311 306 338 320 314 338 287 267 253 250 215 214 207 185 195 201 181 212 201 193 209 177 196 187 191 189 193 171 180 191 202 204 200 192 215 198 179 215 247 224 211 206 194 206 215 219
273 266 304 312 345 334 318 303 328 264 278 254 251 225 218 106 221 186 203 208 201 184 199 198 196 182 200 204 199 190 189 187 172 197 192 193 203 213 194 187 220 244 228 210 206 199 194 219 216
253 291 300 341 347 356 329 306 196 304 307 259 257 242 224 206 200 197 202 213 213 205 196 183 179 208 194 185 169 200 186 190 189 198 193 176 198 211 177 194 201 207 239 213 207 201 212 225 207
275 296 309 315 307 344 229 134 301 292 293 254 258 246 230 210 206 198 200 206 200 194 200 209 193 193 191 185 187 180 177 184 198 193 140 182 168 207 215 217 226 231 254 214 210 191 188 237 212
302 370 432 432 378 346 333 67 288 279 279 259 245 245 228 213 210 212 199 200 200 190 194 192 202 193 176 185 182 184 185 193 180 181 177 198 206 207 207 224 222 233 264 220 207 200 196 216 213
465 172 467 503 479 380 325 365 286 279 271 270 276 241 235 224 220 211 207 202 203 203 197 193 194 193 193 191 182 190 188 189 192 194 194 127 207 210 221 208 210 231 262 240 212 209 194 220 209
432 405 417 430 448 515 372 327 287 267 267 256 262 271 240 232 222 227 209 200 198 198 200 193 188 189 191 187 187 190 196 189 200 199 215 209 188 215 207 224 198 237 250 247 209 204 197 212 204
375 381 390 384 405 463 469 159 278 237 254 251 247 255 224 262 226 234 217 208 206 190 194 200 192 195 198 201 202 208 211 206 205 204 203 202 217 222 221 215 221 239 251 242 211 196 201 205 195
364 363 349 394 424 443 476 294 287 147 229 254 268 250 233 266 227 216 213 231 204 203 197 194 207 203 202 196 188 206 200 204 219 200 198 214 206 194 204 214 224 243 247 237 211 195 203 203 216
343 333 336 111 377 445 382 320 277 187 258 98 186 256 256 253 258 244 213 217 227 206 210 201 211 204 205 201 202 199 200 204 212 217 211 220 194 212 208 213 225 238 210 231 208 205 202 195 216
327 321 324 274 345 313 443 258 331 258 139 257 263 253 251 249 240 227 236 223 222 230 231 208 212 209 209 211 193 204 193 219 223 212 222 224 198 208 215 218 228 234 215 233 215 202 204 200 220
315 308 328 323 332 381 266 300 309 260 253 254 262 261 226 234 226 231 234 226 213 210 226 220 211 203 203 206 202 204 208 206 213 213 216 204 203 212 227 224 230 244 255 231 217 204 203 211 201

GFSSGP_2pvu_pres_126.txt.gz
Presure
136 130 121 123 130 111 113 118 135 127 123 125 104 115 117 115 109 112 116 111 106 92 118 118 117 116 119 118 113 110 114 112 105 113 110 110 103 114 117 95 102 122 124 122 108 85 84 141 140
149 139 139 136 123 121 125 132 138 139 132 124 121 126 131 121 121 121 123 122 113 114 113 110 116 119 120 112 114 117 113 115 119 123 119 118 118 113 114 118 117 112 121 131 132 131 128 90 147
175 167 167 153 141 134 134 134 126 137 140 135 132 130 131 125 119 110 118 108 106 97 124 125 106 124 125 115 119 118 104 129 127 123 123 126 133 140 140 136 132 129 131 127 123 77 89 182 198
259 148 193 186 189 171 142 111 157 153 133 147 143 140 116 120 125 124 124 129 126 110 110 121 122 121 120 124 128 132 135 124 142 143 143 145 127 141 138 143 263 240 228 229 78 188 211 218 209
219 168 236 145 154 179 193 105 179 160 171 158 157 154 148 142 135 132 136 137 135 128 129 128 127 128 127 131 133 135 137 141 148 196 130 233 210 229 255 287 262 240 214 227 216 140 210 211 219
198 143 216 195 230 157 203 142 146 252 203 172 175 172 166 160 152 150 149 154 147 138 137 145 136 140 144 152 160 162 181 223 183 167 134 207 191 228 249 242 240 237 221 191 232 222 154 213 207
169 177 209 222 213 183 226 244 245 232 186 143 265 246 193 187 177 160 157 168 170 167 169 165 165 202 200 215 212 210 218 206 118 198 216 214 223 227 237 217 184 163 219 215 156 239 183 200 205
156 219 206 203 198 148 218 229 165 167 236 241 244 251 196 235 249 178 184 144 189 223 224 220 214 220 216 215 221 220 209 214 213 204 204 206 207 197 228 105 259 163 240 212 212 210 206 227 128
215 226 212 230 231 206 238 202 125 218 235 232 225 181 252 245 217 238 225 224 199 228 216 206 149 207 213 213 211 215 179 205 205 209 204 205 209 213 194 135 145 90 242 170 150 138 203 146 205
222 194 189 184 200 224 229 230 212 237 212 189 193 193 237 245 132 126 193 149 181 166 210 168 218 212 166 203 209 200 203 206 203 128 146 199 194 216 166 217 223 280 176 230 180 203 174 179 195
224 218 159 178 227 211 186 206 222 165 257 228 204 229 226 237 107 216 217 98 116 146 97 217 199 172 202 153 202 201 201 201 203 194 209 200 77 201 214 225 240 267 263 235 166 235 203 118 196
205 216 199 153 217 220 168 212 184 199 188 223 259 216 221 212 207 225 210 213 204 212 220 203 204 199 208 202 193 192 191 203 194 192 197 199 188 194 192 227 190 244 264 234 143 230 227 195 189
208 207 207 201 210 208 166 224 178 193 189 187 111 245 258 219 214 212 202 211 205 203 203 175 197 203 190 190 193 199 205 198 197 188 189 182 193 204 210 195 152 228 261 119 197 151 219 226 218
204 192 202 204 213 223 216 220 234 209 160 218 179 221 223 237 207 202 214 198 138 200 201 192 145 192 190 191 186 195 191 190 197 194 191 190 168 173 178 200 209 218 169 183 225 213 202 185 105
211 210 218 205 216 223 222 271 267 253 257 261 256 233 201 172 226 221 221 77 209 189 210 203 177 193 185 196 195 195 193 193 195 194 191 204 181 182 193 188 221 164 179 263 226 211 203 141 206
213 211 214 211 218 233 260 267 287 274 280 277 278 276 262 196 236 198 170 212 191 198 163 192 188 180 196 183 186 191 104 193 165 195 192 198 190 200 204 158 190 153 103 207 176 209 203 201 205
222 223 232 173 265 278 283 288 300 275 285 283 276 288 272 261 235 179 211 214 209 114 207 203 187 185 185 184 182 189 190 187 186 185 185 187 184 193 180 167 192 113 209 167 267 222 205 193 207
233 253 226 288 136 282 281 269 285 267 266 300 286 279 285 264 250 222 229 201 101 212 175 183 189 184 162 177 179 151 122 186 185 187 183 199 184 181 187 192 198 185 156 217 202 238 207 193 201
259 266 267 270 59 84 250 256 254 262 305 297 369 365 294 274 193 253 246 213 194 208 205 197 194 175 186 84 116 187 150 186 191 186 183 192 192 172 184 202 183 174 216 194 209 251 216 205 200
235 253 255 271 259 242 154 295 330 316 320 329 351 344 321 289 273 261 226 224 206 211 199 212 200 146 104 85 185 163 190 177 189 183 191 190 189 187 206 200 191 203 188 215 208 219 246 207 198
220 233 237 254 247 287 307 324 324 331 326 341 345 328 325 289 280 262 244 219 212 202 189 209 196 177 191 183 192 179 191 176 181 159 194 178 195 173 186 199 204 204 205 191 218 226 246 213 202
223 228 243 320 329 329 325 316 541 357 331 329 338 305 314 347 274 258 229 229 218 188 163 160 205 183 190 197 199 200 197 195 181 193 195 202 189 215 150 200 197 155 200 202 223 210 213 230 202
234 251 326 320 324 443 480 441 533 579 410 311 334 285 301 333 264 259 231 231 222 210 201 222 191 208 191 201 196 178 184 181 180 178 200 187 182 186 203 201 138 204 213 217 219 224 247 239 209
252 321 166 398 404 429 234 415 72 77 380 334 289 284 295 318 281 262 237 233 232 223 202 214 216 196 196 204 189 209 192 189 184 201 187 183 196 202 185 191 203 218 214 217 221 226 248 262 218
311 313 383 389 379 380 430 439 474 220 322 305 286 304 297 299 251 269 248 243 239 225 216 209 189 194 201 186 191 190 183 202 195 201 197 191 180 193 193 200 214 211 89 217 218 227 245 261 220
286 380 366 381 360 376 386 453 86 313 349 287 285 289 290 292 314 257 239 234 234 223 215 204 198 203 194 199 196 188 193 204 201 160 191 190 187 198 211 213 207 204 146 225 216 221 242 256 229
337 363 366 354 344 352 386 210 466 268 302 288 287 283 289 287 289 260 232 239 231 225 216 203 202 211 200 198 205 200 194 189 201 185 186 195 204 209 213 214 201 188 223 216 211 225 240 253 232
259 347 342 350 348 381 377 454 283 314 310 283 271 290 243 241 285 291 232 242 222 232 216 202 209 201 202 191 188 179 199 202 188 188 203 197 191 202 204 161 209 205 222 207 215 225 239 248 233
269 332 330 157 345 363 330 380 301 309 313 280 205 273 222 229 235 248 199 233 208 220 219 210 205 208 202 210 199 190 188 186 187 188 191 212 205 202 207 205 216 204 156 213 214 229 236 249 235
343 330 311 248 342 366 344 340 288 307 314 262 85 255 241 210 238 227 238 228 235 231 211 215 220 210 201 197 197 200 191 192 215 214 208 203 208 206 210 221 220 226 213 211 226 229 239 243 233

GFSSGP_2pvu_pres_129.txt.gz
Presure
133 134 133 128 122 124 130 138 133 128 119 118 120 101 104 105 111 117 111 113 112 108 109 112 115 114 115 96 123 123 121 120 120 122 119 103 115 115 111 109 110 106 98 100 102 106 112 130 117
149 145 144 137 136 134 133 134 116 125 133 132 112 118 115 96 121 118 116 114 112 111 113 112 115 112 112 120 123 117 117 112 116 113 116 111 110 105 109 112 115 115 119 124 103 123 126 124 87
178 175 153 167 159 147 137 148 133 142 145 137 129 129 122 124 128 127 115 112 118 117 123 122 123 125 116 115 111 114 113 118 109 105 113 112 113 105 119 123 110 111 118 129 135 135 136 134 100
130 189 177 190 190 179 180 156 176 180 174 163 152 142 132 131 129 118 114 123 117 124 117 115 112 114 105 121 126 124 123 131 112 118 115 102 127 120 115 138 138 137 135 121 127 127 210 219 224
205 214 128 154 183 149 145 155 197 236 210 207 193 193 169 147 151 149 147 130 131 131 130 127 126 121 131 128 119 137 138 132 137 134 133 134 128 172 235 225 251 248 225 257 224 239 203 215 213
197 222 199 213 188 233 150 153 155 214 151 200 260 224 208 212 227 165 159 163 147 146 146 134 128 133 137 139 137 136 142 147 134 141 184 194 214 223 222 217 190 252 269 157 245 218 215 208 212
195 214 206 159 159 214 222 220 227 152 180 230 230 217 175 150 174 157 235 250 233 176 169 165 164 162 161 156 160 169 172 187 222 223 222 221 224 208 214 218 212 170 230 203 259 226 228 171 208
207 188 223 204 196 190 200 214 216 213 213 174 219 153 210 192 232 236 149 145 247 236 232 214 196 191 183 186 186 193 207 224 220 218 218 215 212 184 217 221 212 221 211 193 199 158 153 177 204
178 187 211 187 182 192 192 212 173 246 220 211 112 244 228 215 218 199 221 234 238 235 238 228 225 224 223 230 216 213 217 216 217 219 212 213 207 213 193 204 213 210 210 192 185 273 241 209 202
201 191 202 206 205 200 186 163 205 203 212 186 175 194 203 222 234 216 220 183 209 225 237 231 225 189 215 216 183 162 194 213 215 211 207 205 201 194 162 172 212 192 99 191 229 274 260 261 207
121 204 204 137 176 191 191 217 206 185 183 219 215 198 202 187 198 235 215 218 154 226 225 222 216 215 214 205 212 204 210 141 181 174 151 197 202 193 191 76 154 199 230 153 118 194 251 170 226
205 199 199 201 195 206 174 216 178 216 213 208 220 222 233 203 187 220 228 221 213 224 222 76 97 148 147 196 202 214 209 204 133 206 198 200 161 187 104 189 186 205 226 232 172 262 248 244 231
201 207 189 208 215 219 222 212 211 184 194 220 168 217 165 195 218 250 192 204 207 221 212 172 215 213 207 217 213 210 205 209 202 147 193 208 183 198 196 190 203 210 222 168 235 255 249 182 209
190 206 215 181 197 216 192 219 214 179 184 188 220 231 246 257 186 267 284 188 197 210 204 211 211 210 217 206 204 205 195 193 195 193 196 203 191 184 187 193 199 200 187 211 219 202 184 212 133
210 214 214 209 212 149 181 229 217 217 215 207 228 253 255 261 255 275 259 251 216 170 209 198 215 215 180 206 201 194 191 141 193 193 194 197 193 189 196 196 201 190 212 212 192 209 209 250 226
200 211 210 206 206 211 226 251 263 257 254 246 270 268 268 269 265 280 161 266 237 213 203 206 109 192 207 195 200 180 188 200 194 192 180 191 194 195 185 192 189 196 178 169 150 183 104 113 231
215 216 206 200 247 243 240 136 272 256 260 250 243 257 269 275 270 278 279 251 254 216 199 201 77 198 183 202 198 190 165 188 184 198 192 188 168 195 144 186 201 194 187 184 170 170 138 211 141
210 216 232 215 81 217 230 274 266 268 237 237 255 261 248 261 267 271 274 284 273 238 204 212 192 179 116 193 201 175 190 121 185 194 191 163 191 170 190 189 198 199 195 190 173 207 221 216 235
241 214 236 230 210 184 250 229 248 193 220 243 243 240 235 245 261 272 285 292 293 258 224 170 89 199 189 214 206 201 172 189 187 165 172 183 163 181 191 189 195 187 191 180 199 188 201 222 182
208 232 236 237 205 209 114 284 298 240 79 291 322 320 250 236 246 252 263 287 290 275 224 210 213 190 179 194 186 197 189 171 159 183 184 189 182 181 173 192 184 193 191 193 191 193 193 210 185
209 220 240 232 210 226 257 66 329 333 322 331 328 328 318 308 301 301 299 288 296 295 229 222 209 200 206 180 200 205 149 195 186 191 189 161 190 161 197 196 182 196 201 181 183 203 189 214 213
208 216 237 216 236 265 271 161 345 441 477 497 507 424 329 310 302 308 361 356 295 305 250 230 210 213 198 200 198 198 191 195 182 175 178 177 177 184 171 179 185 192 175 178 176 186 183 208 158
227 221 68 209 249 354 326 325 98 179 406 403 181 507 538 342 305 318 355 345 338 297 246 223 227 143 201 209 183 179 181 185 197 179 185 180 185 186 205 187 186 191 188 175 167 192 200 222 217
215 232 239 248 270 338 366 371 79 344 221 94 414 607 617 363 321 353 346 329 348 338 252 257 203 120 205 154 200 191 198 175 172 196 178 197 193 185 179 182 187 202 174 176 189 202 199 217 214
237 243 255 261 344 340 378 378 199 480 482 435 517 526 398 326 345 347 337 332 348 279 254 257 229 214 205 202 205 209 197 197 197 177 188 196 181 179 193 182 203 195 180 177 148 173 219 214 218
234 246 245 317 335 408 371 361 380 413 85 360 409 373 327 342 347 329 318 347 353 283 263 247 223 213 206 198 199 206 185 193 193 226 190 192 175 189 200 204 199 198 197 195 139 216 135 213 226
220 238 267 326 373 375 363 384 408 392 358 340 304 332 234 322 315 302 309 338 306 269 262 241 226 217 213 204 183 191 217 199 183 178 219 219 192 180 183 190 199 196 194 203 203 193 222 209 213
238 260 320 223 359 309 356 398 425 180 321 116 341 335 313 303 293 303 336 313 286 269 253 234 216 221 220 195 206 237 191 174 167 171 180 190 190 200 194 194 193 192 183 204 202 176 227 217 220
248 313 245 87 80 358 391 390 334 310 304 321 305 255 259 250 249 251 255 267 275 276 245 225 224 224 221 221 199 169 204 221 227 205 178 204 194 195 195 192 195 182 199 209 208 164 222 223 222
306 302 329 346 348 337 366 376 66 71 94 302 255 195 233 230 247 227 234 241 230 250 248 234 219 209 208 199 194 206 185 182 181 182 201 202 195 204 203 177 197 194 201 217 183 213 159 221 217

GFSSGP_2pvu_pres_132.txt.gz
Presure
140 135 136 134 132 131 137 140 138 135 128 124 118 117 109 104 113 116 121 123 117 114 110 118 117 116 119 118 135 118 103 100 99 116 101 98 105 100 105 123 114 91 105 105 109 105 99 102 109
127 129 135 150 142 141 144 145 147 148 144 145 137 131 120 120 116 110 115 121 115 121 116 115 114 116 117 107 106 124 121 103 123 114 104 107 110 121 119 119 115 113 112 99 112 97 109 104 125
116 161 177 155 148 149 153 154 155 154 156 153 150 143 123 123 122 120 123 121 115 123 124 123 119 121 119 119 111 119 117 118 123 119 118 119 117 118 120 112 114 111 112 100 118 123 102 119 129
150 140 133 204 204 196 204 217 110 166 167 166 164 160 150 149 147 122 130 119 123 123 112 111 128 127 120 123 111 123 124 105 120 123 119 113 118 115 104 111 116 104 112 119 120 122 134 133 135
134 149 144 185 118 165 153 144 165 122 124 118 154 142 243 259 204 225 187 166 166 136 135 134 122 125 131 124 131 132 130 125 110 129 116 127 130 127 125 114 119 114 127 150 213 135 238 215 192
194 206 190 186 213 183 172 178 129 180 193 181 231 231 193 155 155 215 237 252 245 257 225 202 196 146 130 144 134 125 122 126 123 135 137 136 142 141 141 134 136 209 225 233 224 173 169 231 223
206 185 212 203 174 203 206 216 208 232 145 207 103 229 143 152 152 158 225 155 158 249 247 243 222 231 237 220 213 130 151 132 133 117 163 164 185 184 218 201 228 227 234 210 261 220 227 222 234
192 194 188 186 196 163 205 200 209 200 198 216 213 184 243 220 208 205 215 212 231 257 156 223 237 248 231 240 224 223 224 217 227 225 217 212 221 222 213 225 226 218 228 217 223 221 109 215 205
191 189 211 191 192 162 193 189 191 216 215 208 210 208 192 244 230 232 211 230 203 246 232 260 222 206 192 209 205 227 223 216 224 223 218 218 223 180 192 210 212 212 212 221 201 91 224 260 213
191 194 192 192 203 215 212 193 193 189 173 220 199 205 236 226 205 188 211 191 203 201 204 238 226 208 237 225 206 225 220 198 226 213 214 214 202 197 206 206 179 205 208 214 183 153 229 210 277
185 184 205 208 214 179 185 203 196 190 191 194 189 199 156 206 218 205 201 189 221 202 111 194 197 234 193 223 229 227 225 226 217 206 203 169 208 205 154 144 155 114 208 213 150 194 231 227 135
178 179 192 215 166 219 222 218 207 219 195 212 213 196 232 238 216 220 215 227 219 209 199 188 206 197 228 221 221 224 223 214 218 209 215 208 209 205 200 198 191 193 85 207 208 209 237 204 262
171 184 200 224 218 211 212 210 213 201 182 207 214 202 219 175 231 230 212 219 233 229 143 223 223 128 79 177 126 176 180 213 196 144 182 215 207 178 212 190 158 198 197 201 212 209 211 206 270
171 183 166 223 165 220 219 214 210 215 219 224 217 212 218 226 235 242 235 234 219 218 247 198 211 204 155 195 206 222 218 213 213 207 203 205 205 149 201 198 199 187 191 205 209 202 220 227 176
187 192 188 250 235 227 218 219 208 209 210 211 212 232 246 247 252 261 259 262 263 263 256 234 227 219 210 199 191 223 210 211 223 220 209 207 199 200 203 198 190 200 192 196 200 196 200 196 174
147 187 236 221 215 209 224 167 205 215 230 249 241 212 215 220 251 252 272 262 264 271 265 250 237 210 213 94 182 204 205 215 213 200 205 201 188 200 193 192 197 190 186 194 200 190 200 157 201
179 227 206 214 211 221 215 154 200 243 234 236 242 226 217 236 235 251 268 255 196 282 274 258 240 216 213 77 82 162 190 213 212 206 210 193 194 193 174 199 197 187 191 192 188 195 201 200 184
193 212 215 213 217 214 215 236 203 202 221 240 232 235 238 210 223 248 241 243 252 275 275 291 240 226 226 211 216 183 205 192 204 200 206 183 103 166 174 199 196 197 188 188 197 197 192 195 194
217 218 217 220 222 210 206 63 236 210 72 234 221 228 211 224 234 288 248 238 247 266 287 307 281 245 215 215 218 221 183 192 204 183 201 167 130 191 192 164 180 177 179 171 196 191 181 191 198
217 220 234 249 230 227 212 222 224 221 230 236 256 203 372 359 330 325 288 241 240 257 267 275 309 241 226 216 222 221 199 198 176 192 188 77 189 191 199 167 180 189 189 180 183 196 184 206 191
220 231 219 203 217 237 236 231 145 240 249 67 351 376 217 420 397 328 328 260 250 258 251 264 291 274 241 232 218 218 220 192 195 177 80 194 189 171 168 172 148 190 194 204 181 188 182 195 195
235 211 241 232 239 227 138 198 111 145 144 131 144 321 74 442 479 495 333 309 310 300 268 260 285 300 246 228 226 223 205 172 198 200 201 202 189 186 191 178 193 187 179 176 171 182 182 162 196
227 222 233 233 229 226 148 205 272 343 95 334 407 404 431 566 490 547 435 316 308 71 282 256 78 299 285 246 233 224 212 210 153 201 192 201 185 177 177 191 178 160 181 187 188 205 201 181 159
228 235 230 225 232 252 245 178 339 240 419 206 117 358 403 491 385 509 511 319 309 303 301 300 269 287 299 240 224 218 202 215 199 188 190 183 187 189 185 181 190 187 191 182 196 197 188 190 158
230 224 235 237 257 243 237 298 374 198 392 255 89 146 201 347 445 555 539 337 312 305 303 311 298 334 300 236 215 214 205 216 169 204 190 200 200 187 173 181 193 184 176 208 197 183 191 178 162
228 242 254 243 135 252 140 253 383 393 419 368 356 341 336 346 368 508 502 350 310 294 296 305 314 288 291 235 222 215 215 199 211 202 210 197 171 187 193 193 168 174 176 181 173 193 175 206 125
230 224 237 237 248 251 267 387 399 416 374 335 344 193 317 297 323 362 390 359 311 297 291 353 366 307 285 239 226 215 211 211 204 209 221 208 204 195 194 195 191 205 188 210 188 178 190 200 156
228 238 211 240 254 265 343 380 433 386 350 330 309 325 326 334 339 326 347 334 330 334 341 359 343 262 253 234 238 215 199 214 205 190 193 192 203 161 190 201 179 183 209 206 188 204 193 194 181
219 230 232 236 261 322 219 231 409 349 309 317 326 283 278 272 271 264 267 299 313 324 322 339 322 257 237 211 205 190 239 221 194 201 181 186 193 205 220 169 216 181 176 183 205 190 202 198 193
230 232 227 254 315 307 94 106 394 85 295 290 268 265 252 260 258 257 259 277 282 288 345 311 244 221 237 227 201 191 193 195 173 166 163 162 160 180 161 170 196 155 191 177 196 201 197 186 193

GFSSGP_2pvu_pres_138.txt.gz
Presure
168 156 153 174 171 168 152 150 149 150 134 138 135 130 135 110 123 126 115 115 123 120 107 97 116 108 110 112 120 121 136 136 126 124 139 131 124 126 129 130 128 130 130 115 131 108 109 109 115
162 124 179 168 153 112 164 152 158 166 157 150 145 141 146 145 140 140 127 122 125 112 113 115 114 113 117 118 117 123 130 123 130 131 130 124 121 111 123 120 118 113 116 122 114 115 112 111 104
151 173 138 129 173 175 186 142 133 177 141 152 161 159 155 153 152 155 153 157 149 151 117 121 119 119 109 112 120 122 116 119 110 126 130 129 127 125 109 112 118 110 121 118 122 123 125 123 117
215 254 258 254 142 147 181 170 201 160 180 150 189 187 194 187 135 236 243 160 151 147 144 151 158 154 142 126 113 111 140 124 121 117 115 125 117 119 122 124 123 125 127 111 115 113 118 118 115
188 217 213 200 191 214 251 173 182 224 224 235 247 157 243 211 149 175 197 138 132 133 217 160 178 168 185 164 172 140 148 125 115 120 123 125 119 121 123 120 115 119 117 112 115 118 116 113 112
199 215 187 196 203 219 205 219 218 203 172 207 199 203 224 165 155 173 134 144 145 135 139 158 192 169 152 151 184 258 228 224 181 121 119 120 124 123 130 127 123 120 122 124 111 121 119 110 133
134 177 207 207 210 212 212 219 218 208 203 206 207 201 213 212 214 128 209 211 214 218 161 127 124 163 131 165 234 144 245 185 222 248 233 236 220 211 138 126 128 126 128 116 120 128 134 137 131
203 198 198 196 196 196 110 203 207 201 206 199 137 178 196 200 205 155 210 209 215 204 206 206 212 177 212 230 213 214 177 220 240 239 128 169 228 233 231 225 227 230 138 162 133 137 132 227 223
139 188 187 162 193 193 183 178 200 162 195 196 190 190 184 192 192 194 211 212 200 125 224 207 203 203 220 217 236 216 218 221 226 220 230 231 222 183 154 221 217 198 184 225 215 210 212 224 226
189 178 188 130 193 188 170 179 178 190 192 172 195 193 190 192 195 199 223 218 213 221 208 204 206 218 208 198 202 211 219 230 194 200 246 230 215 228 218 226 159 208 191 155 152 208 223 201 184
180 132 119 175 184 183 184 187 182 177 182 181 186 189 190 181 188 186 186 228 223 214 222 224 218 227 217 222 219 221 219 220 223 206 221 217 220 215 217 220 212 218 209 216 210 194 218 206 209
137 180 179 153 130 180 185 181 178 187 180 181 182 181 182 193 195 186 182 182 218 224 210 207 214 200 215 220 214 215 203 216 217 218 222 204 214 232 218 213 212 208 159 210 209 206 203 213 202
179 149 183 180 176 179 180 180 178 174 177 186 151 174 192 182 194 204 192 220 198 225 220 212 205 203 207 202 210 201 214 205 164 214 203 225 216 211 217 211 207 215 207 202 208 203 202 211 146
144 196 177 174 162 184 176 184 150 185 192 190 169 199 178 191 193 159 184 223 218 227 215 223 217 210 227 214 120 170 98 93 237 209 197 205 213 216 207 224 205 213 163 202 181 198 203 194 201
153 175 182 170 186 183 188 180 168 193 178 188 186 181 186 205 182 167 172 226 224 221 222 215 216 218 217 258 253 280 255 231 100 84 211 215 219 220 210 219 221 206 195 192 194 198 197 193 196
206 211 233 172 212 215 206 200 184 191 204 219 192 190 216 239 207 173 209 221 225 223 222 216 214 223 242 234 223 108 226 243 154 235 219 219 226 219 217 204 220 205 199 193 195 199 195 194 199
178 201 200 136 214 195 205 207 219 221 221 223 219 207 187 213 214 204 223 226 224 224 226 228 226 227 227 223 234 230 237 227 247 244 152 232 207 210 196 211 212 199 196 197 187 185 199 195 177
194 184 197 199 129 160 205 202 223 220 218 213 214 206 196 214 219 216 218 219 231 233 241 249 256 233 232 246 237 232 246 226 249 239 233 237 220 211 222 215 189 197 192 191 193 197 189 187 188
169 177 217 216 200 212 202 204 204 62 225 231 222 216 210 225 224 225 217 226 220 233 227 223 233 241 259 105 241 147 246 218 236 245 240 247 223 222 214 215 201 210 197 190 192 201 134 184 189
199 208 200 201 209 196 203 219 214 227 221 232 230 188 239 235 222 226 254 256 225 249 243 246 188 191 254 268 229 225 226 232 221 240 193 74 212 194 214 216 207 209 199 185 188 191 198 181 186
223 193 198 206 211 209 210 217 202 217 203 184 186 233 239 263 241 253 252 232 243 248 257 193 220 250 243 163 209 234 226 202 209 233 169 97 234 223 213 209 199 135 82 180 182 190 186 175 186
204 178 226 228 208 190 236 223 217 188 161 259 282 233 256 273 252 122 242 145 379 391 392 416 262 440 376 288 170 281 267 204 187 236 259 233 228 231 215 214 204 199 164 190 182 180 193 179 132
207 182 211 235 219 205 250 238 238 223 242 239 254 244 94 80 292 427 189 370 350 358 353 356 363 396 423 406 362 328 251 313 202 230 228 254 239 240 229 219 212 183 190 195 181 181 188 190 176
210 227 225 249 244 166 249 153 224 248 253 263 256 182 220 322 407 386 122 89 283 324 344 375 369 407 467 405 371 341 326 244 211 224 226 263 251 238 241 226 214 192 191 192 181 160 161 184 192
213 250 226 231 151 246 249 213 241 258 235 141 200 265 309 397 123 328 333 244 87 142 371 409 444 523 463 201 71 236 319 302 240 224 231 230 261 244 242 223 215 207 184 194 181 179 183 186 195
192 197 251 245 250 253 245 229 248 243 251 257 254 288 414 354 335 331 267 118 313 218 360 509 549 517 464 203 350 330 304 296 262 243 229 236 262 251 233 231 211 202 191 170 175 183 184 192 193
243 240 226 219 248 246 233 235 233 260 259 254 268 272 380 326 305 283 289 304 347 401 389 449 460 295 387 344 321 312 296 277 259 227 254 245 265 254 235 237 217 201 197 163 189 188 187 180 180
249 246 227 232 238 233 234 245 244 251 256 260 285 443 265 289 291 288 283 298 306 376 370 422 435 382 341 326 319 262 292 272 241 226 242 269 265 255 237 241 224 208 199 174 190 186 180 168 171
247 249 247 247 225 239 237 241 244 258 264 254 266 396 290 278 283 285 283 260 294 323 358 373 334 320 312 273 261 215 280 205 217 241 237 271 271 257 233 228 221 188 175 161 182 157 172 187 173
247 209 240 244 220 247 182 245 262 273 281 99 441 303 275 275 267 261 274 264 267 285 287 339 287 289 282 294 286 303 197 232 222 226 239 260 277 257 235 228 183 200 186 184 174 180 183 173 173

GFSSGP_2pvu_pres_141.txt.gz
Presure
141 141 149 162 162 161 145 161 165 148 146 131 127 131 130 121 137 103 119 117 111 113 105 112 112 108 103 118 115 124 112 113 105 117 126 134 131 135 134 132 125 127 130 128 125 124 127 131 130
161 170 145 147 163 148 168 156 168 163 164 154 165 150 153 145 136 134 136 140 123 116 121 115 115 115 118 114 111 106 106 120 113 112 119 132 136 130 128 123 130 120 115 118 122 117 113 111 120
207 206 183 184 149 116 193 139 144 163 144 118 158 171 153 156 156 157 161 154 144 160 146 144 137 124 116 115 119 116 114 122 123 124 120 123 124 118 128 118 128 117 130 112 111 118 118 121 103
208 218 119 180 227 132 179 152 144 156 174 171 193 192 177 186 191 189 139 140 158 153 194 169 154 155 150 142 155 125 121 88 135 110 122 127 129 117 122 125 132 124 128 127 124 125 127 122 122
150 202 136 148 144 207 169 204 236 246 243 243 239 216 228 145 149 176 193 121 138 152 221 212 169 232 237 244 232 232 180 155 122 114 123 123 121 131 131 114 115 115 118 120 121 119 114 122 106
224 175 222 228 156 220 223 228 217 210 210 214 214 229 203 223 223 220 217 208 174 175 202 177 184 161 179 145 139 144 189 237 166 229 181 178 176 131 122 124 124 125 120 120 112 118 118 120 118
127 187 212 191 118 221 213 164 209 205 195 212 224 217 216 219 218 211 212 216 214 212 218 202 192 194 125 127 125 131 137 199 152 152 176 240 174 222 151 154 126 124 124 124 121 121 131 128 122
198 84 143 182 125 209 178 204 204 180 178 176 176 179 201 203 201 200 203 202 195 183 203 206 207 214 217 129 226 231 146 128 230 219 147 242 246 234 154 227 223 228 163 160 199 231 228 132 135
207 142 160 134 122 173 193 175 198 179 200 195 199 202 200 198 182 200 196 195 199 201 197 196 208 222 223 209 223 211 181 216 218 239 215 206 187 227 220 215 225 126 217 194 205 224 180 162 171
159 161 139 120 156 192 187 139 136 189 191 195 191 187 189 190 191 197 196 194 195 196 200 196 195 196 220 227 217 210 217 218 223 216 225 201 240 221 224 233 226 217 221 121 217 216 210 148 217
189 194 124 190 187 183 143 184 142 148 175 163 186 140 171 190 187 182 143 188 191 191 187 201 212 197 193 201 224 226 209 224 222 217 205 222 220 163 226 230 226 200 219 215 204 214 216 216 215
189 182 138 143 184 181 148 181 187 183 184 140 182 188 189 150 190 189 195 198 202 203 198 189 184 239 196 185 183 220 206 218 214 207 220 212 206 215 235 216 219 221 204 214 200 211 218 210 208
182 162 179 183 173 179 180 172 194 193 187 180 151 185 164 188 189 191 192 169 148 196 206 202 206 196 181 236 235 217 214 205 206 214 217 208 209 206 219 215 219 214 209 210 203 207 215 214 182
165 181 175 155 168 159 177 162 160 176 182 202 193 168 190 187 190 191 192 142 190 188 189 196 200 165 181 179 216 214 215 209 191 206 204 204 208 202 215 225 215 216 213 201 198 198 208 191 207
180 179 172 175 172 169 180 150 186 208 218 206 204 208 211 206 205 185 185 192 189 195 189 184 232 217 202 231 228 224 216 218 195 200 107 213 211 200 209 197 200 204 214 201 201 198 202 203 203
184 134 171 136 176 180 179 179 190 181 201 206 227 215 208 218 221 223 223 222 217 227 217 205 203 228 200 221 223 228 216 235 217 212 127 237 226 198 196 196 205 214 202 202 202 198 197 191 196
175 183 179 188 166 184 180 172 197 180 135 213 214 169 210 227 228 228 225 219 210 180 205 206 208 211 208 217 226 225 226 232 229 231 216 174 193 173 241 226 209 200 211 212 203 194 193 185 188
173 174 181 175 177 174 184 181 176 181 181 176 137 201 205 218 205 203 200 206 226 229 223 219 195 216 168 229 229 227 229 240 230 231 240 214 236 222 245 219 214 219 213 212 200 194 192 185 185
178 187 190 186 198 204 192 188 194 212 220 206 79 222 134 202 211 220 225 225 225 224 225 227 226 228 237 241 227 239 231 193 190 247 256 219 225 244 218 231 225 222 213 205 196 201 191 182 173
204 193 197 185 179 181 177 200 202 204 206 204 204 228 197 222 234 220 228 221 226 229 239 237 229 233 209 224 241 256 215 247 211 237 217 233 231 217 178 202 228 227 209 212 187 200 189 181 186
195 158 182 183 193 194 192 194 193 190 187 209 202 226 243 260 244 102 222 226 265 265 264 267 260 258 144 245 266 259 255 262 274 183 212 218 223 237 224 198 190 218 208 213 211 85 90 182 182
179 171 190 179 181 192 187 179 201 219 227 239 218 250 185 251 242 244 281 262 101 264 251 282 275 332 278 250 236 277 194 206 273 239 247 201 213 196 243 202 82 230 215 209 105 192 193 180 187
196 195 159 175 159 184 189 211 231 188 250 272 262 259 187 260 258 197 269 276 290 376 392 384 205 390 378 355 376 432 459 275 281 234 188 192 207 213 226 203 219 234 228 204 209 194 181 178 182
195 170 180 188 216 235 202 230 208 233 152 255 270 268 184 236 256 189 277 339 390 359 295 339 345 266 226 345 204 349 241 169 190 317 196 205 197 218 234 208 232 245 229 220 206 197 182 189 178
190 194 179 218 236 198 229 196 240 265 263 247 266 256 252 257 140 280 281 410 327 308 112 174 223 106 370 205 364 350 153 411 396 262 202 194 220 208 214 207 224 251 229 225 208 202 204 189 179
153 222 183 229 232 219 202 241 259 269 251 259 249 249 204 271 288 313 415 315 298 310 310 87 99 213 413 412 414 288 74 317 71 338 211 233 173 187 196 231 217 256 239 221 214 206 199 181 185
227 223 206 221 245 182 226 216 260 246 258 264 258 271 119 278 313 394 292 301 275 301 279 332 215 411 506 570 546 413 398 354 409 280 207 247 206 205 178 226 226 215 246 237 224 211 204 173 199
217 211 228 238 239 243 238 261 252 244 267 266 272 214 273 280 307 307 250 270 251 271 271 333 361 399 431 496 568 476 390 439 375 220 223 247 227 231 239 227 212 221 223 251 231 213 184 174 192
199 215 206 191 234 238 261 265 242 263 262 263 268 260 266 300 425 285 239 262 257 275 289 264 343 362 336 424 437 448 411 379 272 227 169 168 196 189 208 211 228 234 244 225 244 212 192 181 168
200 215 227 223 244 234 251 246 249 264 178 125 251 267 267 290 314 283 274 248 277 282 279 280 302 324 303 290 285 289 266 203 265 197 197 248 176 181 257 202 247 246 241 245 249 198 190 134 159

GFSSGP_2pvu_pres_147.txt.gz
Presure
155 130 191 185 182 183 183 185 69 67 71 71 139 131 128 133 137 71 129 128 130 131 126 123 114 116 122 123 124 123 123 120 128 121 120 122 121 119 124 117 141 129 134 139 169 143 117 126 129
219 215 187 108 127 193 151 189 63 130 127 186 129 166 132 156 160 140 139 139 133 136 135 131 141 144 127 119 117 119 128 121 131 122 125 121 121 114 123 120 114 116 117 121 126 157 148 128 142
206 138 144 123 134 154 245 179 194 189 189 170 160 154 149 129 150 168 167 168 163 159 167 159 160 142 140 140 146 146 144 118 125 114 132 123 122 125 129 103 119 118 125 122 118 119 123 132 131
218 146 196 139 138 140 136 122 235 117 133 199 222 186 184 176 95 200 193 185 187 179 173 160 125 180 254 203 237 218 219 219 229 217 163 126 128 129 128 138 118 121 112 121 124 122 129 140 142
143 202 219 170 139 132 186 123 162 76 139 191 231 156 218 226 134 162 112 137 161 159 174 230 243 161 142 144 217 167 167 232 205 216 157 208 231 167 237 183 163 115 123 118 118 106 126 125 125
176 126 206 207 195 141 156 187 217 216 109 142 226 234 218 166 131 174 210 216 221 219 217 217 211 225 222 230 227 220 211 221 225 191 180 178 158 236 164 215 159 192 215 174 116 124 164 114 117
181 208 139 205 208 118 148 134 212 211 135 160 180 160 183 139 207 219 222 219 203 215 219 223 196 210 196 201 215 207 207 220 200 215 217 199 217 231 243 231 218 150 177 166 208 157 158 162 193
124 204 204 208 205 142 204 192 128 174 133 197 119 179 181 217 216 113 210 215 221 212 204 205 206 212 214 212 184 203 201 213 189 205 209 204 212 206 198 237 238 133 133 233 133 212 242 228 228
190 200 187 163 140 127 131 135 176 201 162 199 189 204 151 200 203 153 202 173 188 163 191 184 184 182 187 193 191 201 172 202 207 205 205 207 202 207 200 204 236 225 214 193 234 209 129 160 161
180 188 190 206 197 193 202 221 176 194 208 168 165 173 173 140 143 124 152 190 188 135 202 195 201 198 199 200 205 192 195 195 194 195 192 206 203 198 195 200 202 236 227 217 204 180 233 214 193
178 184 202 186 188 192 205 217 202 144 203 203 201 195 196 134 200 125 198 199 203 186 194 151 201 211 196 131 141 189 194 196 194 187 192 202 197 205 196 212 209 214 225 223 231 225 206 234 226
162 176 186 196 188 184 196 209 207 200 191 192 148 133 195 190 133 188 187 145 184 181 136 192 208 137 213 225 227 174 178 201 205 203 191 190 195 193 211 246 232 176 219 219 216 224 217 227 210
160 165 193 205 179 186 182 187 195 205 128 184 192 179 177 187 167 123 187 174 185 190 197 138 193 192 203 200 217 234 218 192 138 196 214 229 226 213 199 239 190 210 226 220 209 222 203 220 200
166 153 181 189 179 192 186 184 184 191 195 201 194 168 190 192 168 182 182 143 191 197 199 191 147 142 198 220 214 222 225 210 218 224 180 184 227 230 222 224 236 218 219 216 207 210 214 214 209
167 158 169 161 188 185 198 186 184 182 185 166 181 185 187 192 187 185 178 130 188 181 184 185 198 199 208 224 221 235 201 227 204 216 227 223 213 216 216 208 234 226 222 212 212 213 204 211 223
153 172 172 145 175 165 173 163 179 179 178 184 183 181 186 184 187 189 127 190 181 182 198 142 187 203 160 205 218 225 230 229 225 214 225 204 206 201 218 212 220 230 205 200 217 212 206 202 212
169 183 178 172 183 174 175 193 192 186 180 182 181 183 185 181 188 191 189 198 201 183 196 197 198 196 181 182 241 238 225 224 223 229 227 215 197 171 203 207 222 137 226 223 219 214 213 207 193
202 184 195 142 158 177 183 184 192 190 183 160 172 170 181 183 185 191 193 192 191 199 208 185 178 205 227 254 222 228 224 241 239 243 224 226 169 207 145 205 203 199 216 215 227 216 211 216 234
118 196 197 160 195 181 184 165 177 186 190 194 179 190 195 190 121 198 209 212 214 182 183 198 206 222 266 282 246 258 273 268 257 238 243 234 233 231 144 195 204 216 205 84 257 231 198 216 206
185 195 180 195 185 189 199 182 172 169 172 185 187 189 191 211 164 197 201 209 176 186 195 225 218 236 247 269 184 252 277 142 263 277 252 245 232 223 145 132 196 222 191 211 209 178 100 217 211
179 183 184 191 196 185 193 165 177 178 190 187 173 183 142 204 211 188 200 213 191 201 222 191 233 233 263 280 290 290 261 277 272 274 258 266 266 152 214 77 192 191 164 195 211 166 236 258 228
180 178 188 182 185 182 183 190 184 193 196 175 190 194 196 188 187 206 207 206 221 194 246 247 304 267 333 296 316 192 311 314 310 262 296 282 276 253 215 187 179 176 188 177 115 177 101 200 215
183 190 186 184 182 181 191 197 168 199 182 191 205 206 205 204 187 201 112 215 226 251 167 296 262 301 335 158 349 349 413 400 382 394 416 303 299 288 237 221 171 150 169 162 171 173 177 180 214
179 212 184 163 179 192 183 188 204 200 182 180 198 185 183 207 207 214 218 224 252 285 288 285 316 324 395 359 340 324 321 321 229 331 349 373 356 288 293 273 217 218 174 173 157 172 199 169 198
209 212 177 198 183 193 229 186 194 226 213 225 211 204 206 174 272 255 273 263 249 278 260 299 320 421 318 214 296 297 298 316 340 352 355 320 337 222 368 217 186 185 123 121 180 182 191 161 182
180 201 198 186 236 215 221 236 229 147 196 233 234 234 236 260 255 246 266 257 213 264 107 290 376 319 289 284 294 307 327 330 436 440 443 386 376 165 113 242 203 170 204 194 189 201 167 179 185
212 196 195 217 228 237 195 184 227 243 245 240 221 158 212 204 141 252 258 207 287 272 285 282 348 295 278 292 305 270 89 126 403 581 515 380 369 324 97 143 196 222 199 193 130 182 146 162 171
197 198 171 180 211 223 221 231 233 233 240 235 239 226 183 246 239 148 254 150 280 273 284 294 330 273 267 285 292 344 323 227 408 497 455 380 393 400 312 228 185 187 216 162 140 187 174 147 123
204 200 214 213 219 180 232 228 222 234 236 235 233 224 243 235 256 247 250 273 246 270 178 331 278 289 261 256 307 327 338 392 403 434 421 395 410 261 251 225 152 123 151 199 177 129 165 153 190
208 210 201 216 212 215 210 224 219 227 154 220 230 247 236 248 241 207 255 111 270 274 261 316 273 275 293 279 304 311 325 349 402 413 418 425 372 261 244 229 196 189 209 190 161 206 143 151 166